FW4773 Weather Reports


Display with metric or nautical units.
time (UTC)temp
F
wind
direction
speed
MPH
gust
MPH
rain 1hr
in
rain 24hr
in
rain mn
in
humidity
%
barometer
mb
20260509091513 58 205 0.0 1.0 0.00 0.00 0.00 68 1013.9
20260509090013 59 212 0.0 2.0 0.00 0.00 0.00 67 1013.8
20260509084514 59 205 1.0 3.0 0.00 0.00 0.00 69 1014.0
20260509083006 59 200 0.0 2.0 0.00 0.00 0.00 67 1014.0
20260509081505 59 200 1.0 5.0 0.00 0.00 0.00 66 1014.2
20260509080004 59 223 3.0 8.0 0.00 0.00 0.00 66 1014.2
20260509074602 59 204 3.0 6.0 0.00 0.00 0.00 66 1014.3
20260509073058 59 212 3.0 7.0 0.00 0.00 0.00 65 1014.2
20260509071608 59 200 3.0 7.0 0.00 0.00 0.00 66 1014.1
20260509070054 59 169 3.0 6.0 0.00 0.00 0.00 67 1014.2
20260509064547 59 179 2.0 6.0 0.00 0.00 0.00 68 1014.4
20260509063041 57 212 2.0 6.0 0.00 0.00 0.00 71 1014.6
20260509061545 56 156 0.0 2.0 0.00 0.00 0.00 74 1014.6
20260509060037 56 205 0.0 4.0 0.00 0.00 0.00 74 1014.9
20260509054532 55 186 0.0 1.0 0.00 0.00 0.00 73 1015.0
20260509053032 56 190 0.0 0.0 0.00 0.00 0.00 73 1014.9
20260509051533 56 193 0.0 1.0 0.00 0.00 0.00 72 1015.0
20260509050030 56 181 0.0 0.0 0.00 0.00 0.00 72 1015.0
20260509044536 56 200 0.0 0.0 0.00 0.00 0.00 70 1015.1
20260509043020 57 231 0.0 2.0 0.00 0.00 0.00 72 1015.2
20260509041517 57 207 0.0 3.0 0.00 0.00 0.00 71 1014.9
20260509040016 57 188 0.0 3.0 0.00 0.00 0.00 71 1015.0
20260509034514 57 205 0.0 4.0 0.00 0.00 0.00 73 1015.2
20260509033008 56 212 0.0 1.0 0.00 0.00 0.00 74 1015.3
20260509031507 56 209 0.0 4.0 0.00 0.00 0.00 75 1015.4
20260509030007 56 203 0.0 2.0 0.00 0.00 0.00 78 1015.4
20260509024502 56 236 0.0 1.0 0.00 0.00 0.00 80 1015.3
20260509023005 56 121 0.0 0.0 0.00 0.00 0.00 80 1015.2
20260509021600 57 121 0.0 1.0 0.00 0.00 0.00 78 1015.2
20260509020059 58 181 0.0 1.0 0.00 0.00 0.00 77 1015.1
20260509014556 58 129 0.0 0.0 0.00 0.00 0.00 76 1015.2
20260509013114 59 206 0.0 2.0 0.00 0.00 0.00 75 1015.1
20260509011551 60 207 1.0 3.0 0.00 0.00 0.00 74 1015.0
20260509010050 60 202 2.0 3.0 0.00 0.00 0.00 73 1015.1
20260509004545 61 185 2.0 4.0 0.00 0.00 0.00 72 1014.8
20260509003044 61 202 2.0 5.0 0.00 0.00 0.00 70 1014.6
20260509003018 61 219 2.0 5.0 0.00 0.00 0.00 70 1014.6
20260509001542 62 172 2.0 4.0 0.00 0.00 0.00 68 1014.5
20260509000038 62 213 2.0 4.0 0.00 0.00 0.00 66 1014.3
20260508234537 63 211 1.0 5.0 0.00 0.00 0.00 64 1014.3
20260508233035 63 130 1.0 3.0 0.00 0.00 0.00 63 1014.2
20260508231532 64 189 2.0 5.0 0.00 0.00 0.00 60 1014.2
20260508230048 66 221 2.0 6.0 0.00 0.00 0.00 56 1014.0
20260508224552 67 205 3.0 6.0 0.00 0.00 0.00 46 1013.9
20260508223031 68 206 2.0 6.0 0.00 0.00 0.00 43 1014.0
20260508221522 68 191 3.0 5.0 0.00 0.00 0.00 41 1014.0
20260508220021 69 207 3.0 7.0 0.00 0.00 0.00 41 1013.9
20260508214520 69 218 5.0 9.0 0.00 0.00 0.00 39 1013.9
20260508213020 69 226 2.0 6.0 0.00 0.00 0.00 38 1014.0
20260508211517 70 251 3.0 10.0 0.00 0.00 0.00 41 1013.9
20260508210014 70 226 3.0 8.0 0.00 0.00 0.00 39 1013.8
20260508204517 69 197 5.0 10.0 0.00 0.00 0.00 39 1013.9
20260508203011 70 210 1.0 6.0 0.00 0.00 0.00 39 1014.0
20260508201509 69 206 4.0 9.0 0.00 0.00 0.00 41 1014.2
20260508200008 69 210 6.0 12.0 0.00 0.00 0.00 40 1014.3
20260508194504 69 192 2.0 11.0 0.00 0.00 0.00 42 1014.6
20260508193135 68 222 4.0 9.0 0.00 0.00 0.00 41 1014.8
20260508191557 67 188 3.0 9.0 0.00 0.00 0.00 42 1014.9
20260508184626 67 213 2.0 12.0 0.00 0.00 0.00 41 1015.4
20260508183057 68 236 7.0 11.0 0.00 0.00 0.00 41 1015.4
20260508181549 67 217 5.0 12.0 0.00 0.00 0.00 42 1015.6
20260508180056 68 291 3.0 8.0 0.00 0.00 0.00 40 1015.7
20260508174558 68 211 2.0 9.0 0.00 0.00 0.00 42 1015.9
20260508173041 68 272 4.0 12.0 0.00 0.00 0.00 38 1016.0
20260508171603 67 200 5.0 15.0 0.00 0.00 0.00 38 1016.4
20260508170040 67 295 5.0 15.0 0.00 0.00 0.00 38 1016.4
20260508164537 67 195 4.0 11.0 0.00 0.00 0.00 40 1016.5
20260508163034 66 177 5.0 11.0 0.00 0.00 0.00 39 1016.6
20260508161538 65 348 1.0 10.0 0.00 0.00 0.00 42 1016.9
20260508160031 65 289 4.0 12.0 0.00 0.00 0.00 42 1017.1
20260508154522 65 302 3.0 8.0 0.00 0.00 0.00 42 1017.4
20260508153021 64 284 2.0 8.0 0.00 0.00 0.00 43 1017.5
20260508151528 63 204 4.0 12.0 0.00 0.00 0.00 43 1017.7
20260508150013 63 255 3.0 7.0 0.00 0.00 0.00 45 1017.8
20260508144506 62 200 5.0 9.0 0.00 0.00 0.00 45 1017.9
20260508143004 61 194 3.0 5.0 0.00 0.00 0.00 47 1018.0
20260508141601 61 173 2.0 7.0 0.00 0.00 0.00 45 1018.1
20260508140110 61 241 1.0 5.0 0.00 0.00 0.00 46 1018.1
20260508134609 60 202 1.0 5.0 0.00 0.00 0.00 47 1018.1
20260508133104 60 165 0.0 0.0 0.00 0.00 0.00 53 1018.1
20260508131546 58 195 0.0 2.0 0.00 0.00 0.00 59 1018.3
20260508130040 56 202 1.0 3.0 0.00 0.00 0.00 64 1018.5
20260508124536 55 205 0.0 2.0 0.00 0.00 0.00 70 1018.6
20260508123034 54 212 1.0 3.0 0.00 0.00 0.00 71 1018.4
20260508121527 53 206 0.0 1.0 0.00 0.00 0.00 75 1018.4
20260508120022 52 216 0.0 1.0 0.00 0.00 0.00 76 1018.2
20260508114517 50 281 0.0 0.0 0.00 0.00 0.00 80 1018.2
20260508113014 47 281 0.0 0.0 0.00 0.00 0.00 85 1017.7
20260508111510 46 311 0.0 0.0 0.00 0.00 0.00 88 1017.6
20260508110010 44 311 0.0 0.0 0.00 0.00 0.00 89 1017.6
20260508104506 43 311 0.0 0.0 0.00 0.00 0.00 89 1017.4
20260508103003 42 311 0.0 1.0 0.00 0.00 0.00 89 1017.2
20260508101559 42 311 0.0 1.0 0.00 0.00 0.00 88 1017.1
20260508100054 43 311 0.0 0.0 0.00 0.00 0.00 87 1016.8
20260508094602 44 311 0.0 0.0 0.00 0.00 0.00 85 1016.9
20260508093049 44 311 0.0 0.0 0.00 0.00 0.00 85 1016.7